Theta_e
298 291 288 288 291 293 294 294 295 295 294 293 293 291 289 289 289 292 293 294 294 293 291 291 291 291 292 293 294 294 294 293 292 293 292 293 292 292 292 293 293 292 292 293 294 294 295 295 296 297 298 300 302 302 303 303 303 303 302 302 301 301 301 301 299 298 296 294 293 292 291 291 290 290 290 290 290 291 291 291 292 292 292 292 292 292
298 289 289 293 295 295 295 295 295 294 293 292 291 289 288 290 289 292 295 294 293 293 287 290 290 291 293 293 293 293 292 292 293 293 293 293 292 293 292 292 292 291 292 293 293 294 294 294 295 296 297 299 300 300 301 301 302 301 300 299 298 299 298 297 296 295 293 293 292 290 289 289 288 288 288 288 289 290 291 290 290 291 291 291 291 291
291 290 293 295 297 296 295 295 294 294 293 292 290 289 288 288 291 293 293 293 293 293 289 289 290 292 294 295 294 292 293 294 295 295 295 294 292 292 292 292 291 291 291 292 293 293 293 294 294 294 296 297 299 300 300 300 300 299 298 296 296 295 294 294 294 293 291 291 291 290 288 289 288 288 289 289 289 289 289 289 289 290 290 290 289 290
289 290 295 298 296 296 295 295 293 293 293 290 289 288 287 287 290 285 290 292 293 292 288 289 290 293 295 295 296 295 294 293 294 295 294 294 293 292 293 293 291 290 290 291 292 292 293 293 293 293 294 295 297 297 298 299 298 298 296 295 294 293 293 292 292 292 291 290 290 289 289 288 288 287 289 288 288 288 288 288 288 288 288 289 288 288
292 294 298 297 296 295 294 293 292 291 289 288 290 288 288 289 290 290 290 291 291 292 292 290 289 291 293 294 295 293 292 292 293 293 293 292 293 293 293 293 292 291 291 291 291 292 292 292 292 293 294 294 295 295 296 297 297 296 294 294 293 292 292 292 292 291 290 289 289 289 288 288 287 287 287 287 286 287 287 287 287 287 287 288 287 287
293 296 297 295 294 294 293 291 292 292 287 288 289 292 291 291 291 291 292 292 284 285 289 290 282 282 286 290 293 290 291 290 290 291 291 292 291 292 292 292 292 292 292 292 292 292 292 292 292 292 293 293 292 293 294 296 296 295 294 293 292 291 291 291 290 290 290 289 288 287 286 285 284 284 284 284 284 285 285 285 286 287 287 287 287 287
294 296 298 295 293 292 292 292 291 293 288 287 288 292 293 293 292 292 290 290 283 283 289 291 284 283 286 291 291 288 289 291 289 290 291 290 291 291 292 291 292 291 290 291 292 292 292 292 292 292 292 292 292 292 293 294 295 294 293 292 291 291 290 290 290 290 290 288 287 286 285 285 285 284 284 285 285 285 285 286 286 286 286 286 286 286
294 294 295 295 294 292 290 290 292 293 289 285 289 294 293 292 290 290 290 289 285 286 289 290 286 284 286 290 294 293 290 290 290 289 290 290 290 290 291 291 291 291 291 291 291 292 292 292 292 292 292 291 291 291 292 293 293 293 292 291 291 291 290 290 290 290 290 288 287 286 286 286 285 285 285 285 285 285 286 285 285 285 286 286 286 286
294 291 293 292 292 289 290 291 292 294 290 287 293 293 292 292 291 290 290 287 284 286 283 285 288 284 283 285 288 290 288 289 289 290 290 290 290 290 290 291 291 291 291 291 291 291 291 291 291 291 290 291 291 291 291 292 291 291 291 290 290 290 290 289 289 289 288 288 288 287 287 286 286 286 286 286 286 285 285 285 285 285 285 285 285 285
296 293 295 296 293 290 291 291 293 295 291 293 293 293 292 291 290 290 285 288 283 283 281 284 288 283 286 287 287 287 287 290 291 292 292 291 291 291 290 290 290 290 290 291 291 291 291 291 290 290 290 290 290 290 290 289 290 289 289 289 289 288 289 289 289 289 288 288 288 287 286 286 286 286 286 286 285 285 285 284 284 284 284 284 284 284
297 295 295 295 292 293 290 291 290 294 294 294 292 291 289 287 285 282 282 282 283 280 283 286 288 288 283 284 288 287 288 292 293 291 290 290 290 291 291 290 290 289 289 289 290 290 290 288 288 288 289 289 288 288 288 289 289 288 288 288 288 288 288 288 288 288 288 287 287 287 287 286 286 286 286 285 284 284 284 284 283 283 283 283 283 283
293 293 294 293 295 293 292 291 291 291 293 295 288 284 286 285 280 281 280 282 278 280 283 288 288 289 282 280 285 292 290 290 293 292 291 289 290 290 290 291 290 289 289 289 289 287 287 286 287 287 287 288 288 287 288 287 287 287 287 288 287 287 287 287 288 288 287 287 286 287 287 286 286 286 286 285 284 284 284 283 283 283 283 282 282 282
286 288 291 295 296 295 290 290 290 289 292 292 289 288 284 279 277 275 277 275 276 280 281 283 286 282 285 289 288 290 292 294 292 294 292 290 290 290 290 290 290 290 289 288 288 286 286 286 286 287 286 286 286 287 287 287 287 286 287 287 287 286 287 287 287 287 287 287 286 287 287 287 287 286 286 285 284 284 284 283 283 282 282 281 281 281
285 287 292 292 294 295 296 291 285 287 289 289 289 285 282 277 275 272 272 274 276 278 282 282 285 284 283 288 294 296 298 294 289 290 292 291 290 290 290 290 290 289 289 288 287 286 286 286 286 286 286 286 287 287 287 286 286 286 287 287 287 286 287 287 287 287 287 286 286 286 287 287 287 286 286 285 285 284 284 284 283 282 281 281 281 281
280 281 288 292 288 294 297 297 294 290 289 290 289 290 286 283 275 272 276 277 277 276 278 280 282 278 281 286 289 288 286 287 288 289 290 292 291 290 290 289 289 288 287 287 286 286 286 286 286 286 286 286 287 286 286 286 286 286 286 286 286 286 286 287 287 287 286 286 286 286 286 286 286 286 286 285 285 284 283 283 282 282 281 281 281 281
286 287 288 297 292 295 295 296 293 289 288 286 288 288 283 286 284 285 278 277 275 275 274 276 280 281 286 288 288 286 287 288 287 289 289 289 289 288 288 288 288 288 287 287 286 286 285 285 285 285 286 286 286 286 286 285 285 285 286 286 286 286 286 286 286 286 286 286 286 286 285 285 286 285 285 284 284 283 283 283 282 282 281 281 281 281
284 283 289 293 292 295 295 295 294 295 286 286 289 285 289 288 290 284 279 279 278 276 280 277 281 281 286 290 288 288 288 289 287 287 288 287 288 288 288 288 288 288 287 286 286 286 285 285 285 285 285 286 286 286 286 286 285 285 285 285 285 285 285 286 286 286 285 285 285 285 284 284 284 284 284 284 283 283 283 282 282 282 281 281 281 281
287 286 289 289 289 291 290 292 293 292 292 287 283 288 290 290 288 284 279 276 274 276 279 280 282 281 282 283 285 286 286 287 287 286 287 287 287 287 288 288 288 288 287 287 286 286 286 286 285 285 285 285 286 286 285 285 284 285 285 285 285 285 285 285 285 285 285 285 284 284 284 283 284 283 283 283 283 282 282 281 281 281 281 281 282 282
295 286 287 288 289 290 291 294 292 294 292 290 287 291 291 282 281 283 280 279 276 277 277 277 280 283 284 287 282 285 286 288 287 286 285 286 287 287 288 287 287 287 287 286 286 286 285 285 285 285 285 285 285 285 285 284 284 284 284 285 285 285 285 285 285 284 284 284 285 284 284 283 283 283 283 283 282 282 282 281 281 281 281 280 280 280
293 288 285 286 288 289 290 290 284 286 292 290 291 290 289 284 278 281 284 277 279 275 273 278 276 282 285 287 287 289 289 290 289 286 287 288 288 288 288 288 287 287 287 287 287 287 286 286 285 285 285 284 284 284 284 283 284 283 284 284 284 284 284 284 284 284 284 284 284 283 283 283 283 283 283 282 282 281 281 281 281 280 279 279 279 278
290 290 283 284 285 288 284 286 286 289 287 285 285 284 288 285 286 284 283 282 279 275 273 276 279 281 283 290 290 292 291 291 290 289 289 289 289 289 289 288 288 288 288 288 288 287 286 286 285 285 284 284 283 283 283 283 283 284 284 284 284 284 283 284 283 284 283 283 283 283 283 282 282 282 282 281 281 281 280 280 280 279 279 278 278 277
290 287 286 282 283 283 284 288 292 292 293 290 289 287 290 285 283 281 281 284 281 280 279 275 280 286 285 288 292 293 293 292 290 291 290 289 289 289 289 289 289 288 288 288 288 287 286 286 285 284 283 282 283 282 283 283 283 283 283 283 283 283 283 283 283 284 283 283 283 282 282 282 282 282 281 281 280 280 280 279 279 278 278 277 277 277
296 287 285 281 282 286 288 289 291 292 291 290 290 286 290 289 287 283 281 281 281 286 281 276 273 286 288 288 287 288 290 291 291 291 291 291 290 290 290 289 289 289 289 289 288 288 287 286 285 284 283 283 283 283 282 282 283 283 283 282 283 283 283 283 283 283 283 282 282 282 282 282 281 281 281 280 280 279 279 278 278 278 277 277 276 276
295 289 287 286 286 287 288 289 289 289 291 289 288 285 288 288 289 289 287 282 284 280 281 277 278 284 287 286 284 285 284 286 289 290 291 290 290 290 290 289 289 289 288 288 288 287 287 285 284 283 283 282 282 282 282 283 282 282 282 283 283 283 282 283 283 283 282 282 282 282 281 281 281 280 280 280 279 278 278 278 277 277 277 276 276 276
291 288 289 285 282 282 283 285 286 287 288 285 287 290 291 291 290 288 285 284 283 285 284 283 279 285 288 284 284 284 284 288 288 289 289 289 289 290 290 289 289 289 288 287 287 286 285 284 283 284 284 283 283 282 282 283 282 282 282 282 283 283 282 283 282 282 282 282 281 281 281 281 280 280 279 279 278 278 277 277 276 276 276 275 275 275
293 288 289 285 282 280 279 279 280 283 286 287 285 288 289 290 289 287 285 286 283 287 286 285 285 289 287 286 287 286 286 287 288 288 287 289 290 289 289 289 289 288 288 287 287 285 285 285 285 284 284 283 283 282 282 283 283 282 282 282 283 282 282 282 282 282 282 282 281 281 281 280 280 280 279 278 277 277 276 276 276 276 275 275 275 274
287 288 291 289 288 286 288 286 287 288 284 283 285 287 288 290 291 291 289 286 284 286 284 288 288 288 287 288 287 288 285 286 287 287 288 289 288 289 289 289 289 289 288 287 287 286 285 284 284 284 284 283 283 282 282 283 282 282 282 282 282 282 282 282 282 282 282 281 281 281 280 280 280 279 278 278 277 276 275 275 275 275 275 275 274 274
285 287 289 291 290 291 293 287 288 290 287 287 286 286 288 288 289 288 287 286 289 285 283 289 288 288 290 287 288 287 286 284 285 287 288 288 289 290 290 289 290 288 288 287 286 286 285 285 285 284 284 283 283 282 282 282 283 282 282 282 282 282 282 283 282 282 282 281 281 281 280 280 280 279 278 277 276 275 275 275 274 274 274 274 274 273
287 286 289 289 289 292 294 289 289 289 289 288 288 288 286 288 288 286 288 290 289 287 285 288 290 289 291 290 292 290 290 290 290 290 291 290 289 288 289 289 288 289 288 286 287 286 286 285 285 285 284 283 283 282 282 282 282 282 282 282 282 282 282 283 283 282 282 281 281 281 280 280 280 278 277 276 275 275 274 274 274 273 273 273 273 273
288 288 288 289 288 290 291 290 288 288 287 286 287 288 288 287 287 288 289 290 290 289 291 288 287 289 292 292 293 292 292 292 291 289 288 288 288 288 289 290 289 289 288 288 288 288 288 287 286 285 285 284 283 283 282 282 282 282 282 282 282 283 284 283 283 282 282 281 281 281 281 281 280 279 278 276 275 275 275 274 273 273 273 274 274 273
287 286 289 287 287 288 289 288 286 287 286 286 286 286 287 287 288 289 290 290 290 290 291 290 288 289 291 290 293 292 290 289 287 288 289 289 289 288 289 289 289 289 288 289 289 288 288 287 286 286 285 284 284 283 283 283 283 282 282 282 283 283 283 283 283 283 282 281 281 281 281 280 279 278 277 277 276 275 274 274 273 274 274 273 272 271
289 286 286 287 286 286 288 287 287 287 286 286 287 286 286 285 284 287 287 290 288 288 289 289 287 288 290 290 288 286 288 289 289 288 288 289 289 288 289 289 289 289 289 289 289 289 288 287 287 286 286 285 285 284 284 283 283 282 282 283 283 283 283 283 283 282 282 282 282 281 281 280 279 278 277 277 276 275 275 274 274 273 272 271 270 269
288 287 286 286 285 285 288 287 287 287 286 284 285 288 290 287 288 289 290 290 291 292 288 286 287 294 291 289 290 288 287 288 289 288 287 288 288 289 289 289 290 290 290 290 289 289 288 288 288 287 287 286 286 285 285 284 283 282 283 283 283 284 283 283 283 283 282 282 282 281 281 280 279 278 278 277 276 275 274 273 273 272 271 271 271 268
287 287 287 288 284 286 285 286 286 284 278 281 289 291 293 289 288 286 287 288 290 291 291 293 291 289 289 288 290 288 287 289 291 290 291 291 290 289 290 290 291 291 291 290 290 289 289 289 289 288 288 288 287 286 285 285 284 283 283 283 283 283 283 283 283 282 282 282 281 281 281 280 279 279 278 277 276 274 273 273 272 272 271 270 269 269
287 287 286 287 284 284 283 285 282 277 280 287 283 284 288 294 292 290 290 291 291 291 291 290 290 287 289 290 292 291 290 289 289 290 289 289 291 291 290 290 290 290 290 289 289 289 289 289 289 289 288 287 286 286 285 284 284 283 282 282 282 282 282 282 282 282 282 282 281 281 280 280 279 279 278 276 275 274 273 273 272 271 270 270 270 269
287 286 286 284 285 282 281 283 276 279 285 283 284 283 283 287 291 289 288 290 291 291 291 290 292 290 289 289 289 287 288 288 286 287 288 289 290 291 290 290 289 289 289 289 290 290 290 289 289 289 288 287 285 284 284 284 284 283 282 282 282 282 282 283 282 282 282 281 281 280 280 279 279 279 277 276 274 273 273 272 271 271 270 269 268 266
289 288 287 283 286 280 281 281 282 286 286 282 281 283 287 286 285 286 283 287 291 292 291 291 291 288 287 287 286 283 285 286 288 289 287 288 289 289 290 289 288 289 289 288 289 290 290 290 289 288 287 285 285 285 284 284 283 283 282 282 282 282 282 282 282 282 282 281 281 280 280 279 279 278 277 275 274 273 273 272 271 270 269 268 268 268
290 287 287 284 283 286 281 280 279 280 279 283 281 283 284 284 287 291 289 282 285 288 291 291 290 288 289 287 284 285 287 289 288 289 288 287 287 287 287 287 288 288 288 287 287 287 287 286 286 286 287 285 285 285 285 284 283 283 282 282 282 282 282 282 282 282 282 281 280 280 279 279 279 278 276 275 274 273 274 273 272 270 269 269 268 267
285 287 287 286 284 282 282 279 280 278 281 280 283 282 282 282 287 287 286 281 284 284 288 289 289 288 289 286 284 287 288 286 287 288 286 285 286 287 286 284 285 285 285 286 287 286 285 286 287 286 285 285 285 285 284 284 283 283 282 281 281 281 281 281 281 281 280 280 280 280 280 280 279 278 276 275 275 274 273 272 271 270 268 268 268 268
285 284 285 283 283 283 282 280 279 282 278 282 281 281 282 280 286 288 276 275 283 282 283 287 287 287 287 286 285 287 287 285 286 284 284 282 285 285 284 284 284 283 283 283 284 285 285 285 285 284 285 285 285 283 283 283 283 282 281 280 280 279 280 280 281 281 280 280 280 280 280 280 279 278 277 276 275 274 273 271 268 268 268 267 266 266
282 281 284 281 283 283 283 281 281 280 284 284 281 281 281 281 287 281 276 281 284 282 282 287 287 288 287 285 287 287 288 287 286 283 280 282 283 282 281 281 282 282 282 282 282 283 283 283 285 284 284 284 282 282 282 282 282 281 281 280 279 279 280 281 280 280 280 280 280 279 279 279 279 278 277 276 275 273 270 269 269 267 267 266 265 264
280 281 281 283 282 281 283 280 281 281 286 285 280 281 282 286 279 278 286 282 282 281 281 285 287 286 286 286 287 286 284 280 279 279 281 281 282 280 281 281 281 280 280 281 281 282 282 281 281 281 280 280 281 281 281 282 282 281 279 279 279 280 281 280 280 280 279 279 279 278 278 278 278 278 276 273 271 270 269 267 267 267 266 265 264 264
281 280 278 280 282 280 280 279 279 276 284 284 284 284 285 283 283 286 282 280 282 281 283 284 285 285 286 285 284 281 279 278 279 279 278 279 279 279 280 280 281 281 281 281 281 280 281 280 279 279 278 277 278 280 281 281 281 280 279 279 281 281 280 279 279 279 279 278 278 277 277 277 276 275 273 271 270 270 269 266 265 264 264 264 263 263
285 280 280 281 284 278 280 277 279 284 284 285 287 284 284 286 286 282 283 280 281 281 283 283 283 284 284 285 281 279 278 278 277 277 277 277 278 278 278 278 279 279 279 279 279 279 278 278 277 277 276 276 277 278 281 282 281 279 279 280 282 278 277 276 276 276 277 276 276 276 275 273 272 272 271 270 269 268 267 265 264 263 263 263 263 263
287 281 282 281 285 282 281 283 285 283 286 285 284 283 285 286 282 283 282 282 281 280 281 284 284 282 283 282 280 279 277 278 278 278 278 278 278 278 279 279 279 279 279 279 278 277 277 279 278 277 275 276 275 276 278 279 281 279 279 280 278 278 277 276 275 276 276 276 275 274 273 271 271 270 269 268 268 268 266 264 263 263 261 262 263 262
282 284 283 285 285 285 285 284 283 282 283 283 281 283 282 281 281 282 282 282 281 281 282 282 281 282 282 282 281 279 280 278 278 277 277 277 278 278 278 278 277 277 277 276 275 276 276 275 275 276 276 274 273 274 275 276 279 279 280 276 275 274 275 275 275 276 276 275 274 273 270 270 267 267 267 267 268 269 268 266 264 265 263 262 263 262
281 282 283 282 283 285 281 281 282 283 283 282 282 281 280 281 280 281 282 282 282 280 280 278 281 282 283 283 283 281 279 278 279 278 278 277 277 278 278 278 278 278 278 277 278 276 275 275 275 274 273 274 272 273 273 273 276 278 274 273 274 274 275 275 276 275 274 274 272 269 269 270 268 266 265 265 265 265 265 265 264 264 263 262 263 262
280 283 283 281 282 283 281 280 279 278 281 282 281 281 282 281 279 278 279 278 278 278 278 278 280 280 280 281 280 280 278 278 279 278 277 278 278 278 278 278 277 276 275 275 276 274 272 274 275 274 273 275 275 273 273 273 275 274 269 268 273 273 274 274 274 275 273 272 270 269 268 269 266 266 265 264 265 265 264 264 264 265 265 263 264 263
282 286 279 282 281 277 278 278 278 281 282 282 280 280 281 280 279 277 278 279 279 279 278 278 278 280 280 280 278 279 278 278 279 279 279 277 276 276 277 277 277 277 275 275 274 275 277 275 275 275 275 276 275 273 272 273 273 271 272 270 269 272 274 273 271 269 267 267 267 267 266 267 266 266 265 264 263 264 265 265 264 265 266 263 262 264
282 279 280 282 278 276 278 279 280 280 278 282 282 282 281 280 279 278 278 278 278 279 278 279 278 277 277 278 279 280 280 279 277 277 277 277 277 276 275 275 274 274 274 274 274 273 272 272 274 274 274 274 272 271 272 272 271 269 271 268 267 271 273 270 269 268 268 268 268 266 265 265 264 263 264 263 263 262 261 264 268 266 264 263 268 270
281 281 281 280 281 280 282 281 284 283 284 285 285 284 282 280 280 279 279 279 278 278 279 279 278 278 278 278 277 279 278 279 278 277 276 275 277 276 276 275 274 274 274 273 273 271 273 272 272 271 271 273 271 271 272 270 269 267 267 268 267 269 270 269 270 269 267 266 267 267 266 265 264 263 262 262 262 261 262 261 264 271 272 270 269 271
Wind_Speed
3 3 5 7 9 10 6 9 10 8 6 4 2 1 4 4 5 4 2 2 3 0 8 9 9 7 7 8 10 11 6 6 6 8 7 8 9 9 9 9 8 8 8 5 6 5 5 4 4 4 4 4 4 4 5 5 5 6 7 9 9 6 5 7 8 7 7 9 9 8 10 10 7 8 8 9 8 9 8 9 9 9 9 9 10 9
3 5 8 9 10 7 9 9 7 5 5 5 5 4 6 2 7 3 2 1 1 3 3 2 4 8 9 6 8 5 5 11 12 12 10 11 10 9 10 9 8 7 4 5 5 4 4 4 4 4 4 5 7 4 5 6 6 7 8 9 8 7 7 6 7 7 6 5 7 10 8 8 6 6 8 9 7 8 8 9 9 9 9 10 9 8
4 9 8 12 7 5 5 6 6 7 7 7 7 5 5 8 4 5 1 1 0 1 7 5 6 10 9 7 6 8 13 12 15 16 17 16 13 10 9 9 9 8 8 6 6 5 5 4 4 4 4 4 5 6 5 5 7 8 8 7 7 7 8 7 8 9 10 8 7 10 6 9 8 6 7 8 7 7 10 9 9 9 9 9 9 8
5 5 12 9 4 5 6 5 5 4 5 7 5 3 8 4 1 6 3 0 1 3 2 1 7 11 8 7 10 11 13 6 8 9 6 6 11 12 13 13 12 10 11 10 9 8 7 6 5 5 5 4 5 6 5 6 7 7 7 7 8 8 7 8 7 10 10 11 10 11 10 8 9 9 7 9 7 9 10 11 9 8 8 9 9 9
12 4 5 7 8 6 7 6 6 7 7 2 4 3 3 2 3 6 5 1 2 3 1 5 7 11 8 12 10 3 0 2 4 5 4 5 7 7 6 7 11 14 12 11 10 8 8 8 7 7 5 5 6 5 5 6 6 6 8 7 8 8 8 9 9 12 12 12 11 11 10 10 10 7 7 8 9 8 8 9 9 8 8 9 10 9
11 8 2 5 5 7 6 6 7 7 7 3 4 8 7 4 5 5 1 1 3 3 2 2 5 6 4 5 10 4 0 5 3 7 8 7 7 8 11 11 7 8 10 14 13 12 10 10 8 6 7 6 5 6 4 5 6 8 8 8 8 8 9 10 10 12 11 11 12 12 12 10 9 9 7 8 9 8 8 9 6 9 8 9 10 9
7 4 6 4 5 6 7 8 5 8 7 3 6 6 8 8 6 3 2 2 4 6 2 2 3 11 2 6 5 3 5 10 4 6 7 5 8 9 10 10 11 11 9 8 9 9 11 10 10 8 8 7 7 5 5 6 7 8 8 8 9 9 9 9 9 8 9 9 7 6 7 9 10 12 5 5 6 8 7 7 9 8 8 8 9 8
4 7 8 6 5 8 6 8 5 9 6 5 2 1 5 4 5 5 2 4 5 1 2 1 3 6 15 8 8 10 9 11 9 9 8 8 7 8 8 10 10 11 11 11 11 11 9 10 11 11 8 7 7 5 5 6 7 9 9 8 9 9 9 7 7 5 6 9 7 8 8 9 8 11 11 8 7 7 8 10 8 7 7 7 7 8
4 5 7 7 7 6 9 6 4 7 6 4 1 5 3 4 3 3 2 1 1 3 8 2 1 4 8 6 3 4 5 9 13 13 13 12 9 8 9 10 9 10 11 12 11 11 11 10 8 8 8 6 6 6 7 6 7 7 7 8 7 8 7 6 6 7 6 7 8 9 10 11 8 10 10 8 7 8 7 10 7 8 7 7 8 8
1 6 9 11 9 8 4 1 2 9 5 2 2 6 5 5 4 3 1 1 2 1 6 5 6 5 17 4 3 0 3 10 12 15 15 14 14 12 10 7 8 7 7 8 9 8 7 7 6 6 7 7 6 5 6 6 7 7 7 8 8 7 7 7 8 10 9 7 8 10 10 15 11 9 9 8 9 8 7 10 8 7 7 6 7 7
1 2 3 3 6 4 5 1 2 1 2 5 5 7 5 7 4 3 4 3 3 8 8 10 11 9 12 2 8 7 9 10 10 5 3 6 8 9 9 10 10 9 9 9 9 8 7 6 8 9 10 8 6 5 6 7 7 7 7 8 9 7 7 8 9 11 11 7 7 10 11 13 14 11 11 11 9 8 8 10 8 7 7 6 6 6
1 1 1 1 3 4 4 4 4 2 3 8 2 4 5 2 5 3 2 2 1 10 6 13 13 14 13 4 5 8 2 3 7 8 8 9 14 14 12 11 11 11 10 10 10 9 9 8 8 8 9 9 8 6 7 7 7 7 7 8 9 7 8 8 9 11 11 8 7 8 10 11 11 12 11 12 12 10 10 10 9 7 7 7 6 6
3 3 2 1 2 9 3 5 2 4 1 6 7 7 7 3 4 2 2 3 7 9 1 3 5 1 18 11 4 5 8 10 6 7 9 11 11 11 11 12 11 10 10 11 10 10 10 11 11 11 10 9 9 9 8 8 8 7 8 9 11 8 8 9 9 11 10 8 8 8 9 9 9 9 10 11 11 9 10 9 9 8 8 7 7 5
6 1 1 2 2 4 9 10 2 1 4 7 9 8 6 2 2 4 4 3 6 4 4 2 6 9 1 8 13 22 18 8 4 5 6 11 14 15 14 12 12 11 11 10 10 10 10 10 10 10 10 10 9 9 9 8 9 8 8 9 10 9 7 8 9 10 10 8 7 7 8 8 9 9 9 9 10 8 8 8 9 8 8 7 7 7
4 4 9 8 6 6 10 13 15 6 10 10 4 12 10 8 5 5 6 6 8 5 1 2 5 7 5 6 1 5 4 4 4 4 5 7 10 10 9 9 10 10 9 10 11 11 11 11 10 11 11 10 10 10 10 8 9 8 9 9 11 10 8 9 9 9 10 8 7 6 6 8 7 9 8 8 8 9 9 7 9 7 6 7 6 6
16 9 6 16 1 10 14 4 8 6 3 3 3 4 5 10 6 8 3 2 1 2 2 2 6 5 7 2 3 2 3 2 3 2 5 5 7 10 10 12 12 11 11 10 10 10 10 9 9 9 9 10 10 11 9 9 9 9 9 9 9 11 10 10 10 9 10 9 8 7 8 8 8 7 8 7 6 7 8 8 9 8 7 6 6 5
3 6 2 3 4 13 11 5 4 8 8 5 6 8 10 2 4 3 2 1 1 2 12 4 7 6 7 9 7 0 0 2 1 4 4 6 8 10 11 12 12 11 12 12 12 11 11 9 9 10 10 10 10 10 11 11 10 11 10 11 10 10 8 9 9 10 9 9 9 7 7 8 8 9 10 10 9 9 7 7 7 8 7 6 6 6
8 4 1 4 4 2 1 1 2 1 5 7 5 8 3 2 3 3 5 2 1 4 7 6 10 4 2 12 1 1 1 5 3 4 5 5 8 11 11 12 13 14 13 11 10 11 12 12 12 11 10 10 11 12 11 10 8 9 9 11 13 12 13 10 10 10 9 10 9 8 8 7 8 8 8 9 10 8 9 7 7 6 7 6 6 6
4 5 3 0 1 3 2 3 1 1 2 8 7 3 9 4 3 2 3 5 1 7 6 4 6 10 11 11 2 4 8 10 9 5 5 8 10 12 10 10 9 8 9 11 13 13 13 13 13 13 13 10 9 9 9 9 9 9 8 8 10 12 11 11 9 8 7 7 8 7 8 9 8 7 8 7 8 8 9 9 7 7 7 7 6 7
1 7 2 2 2 1 0 4 8 5 1 1 3 1 0 4 2 6 8 3 4 4 1 8 4 13 9 7 12 10 14 15 11 7 12 15 15 13 12 12 13 14 13 13 13 13 13 13 13 13 13 13 13 11 9 9 8 10 9 10 8 7 7 8 9 9 9 7 8 8 7 6 7 7 8 8 9 9 8 8 8 8 7 7 6 6
4 1 5 1 3 2 4 4 9 13 11 1 2 5 1 0 2 3 1 4 5 3 4 6 12 7 5 8 13 15 15 16 15 16 14 12 13 13 13 14 14 14 14 14 13 13 13 12 11 9 8 8 7 7 8 9 11 11 9 10 10 13 11 10 9 9 8 8 8 10 10 9 8 8 8 8 7 8 8 7 7 7 7 6 6 6
3 2 8 3 1 6 5 4 7 10 12 13 15 13 15 9 4 4 9 2 2 2 8 4 16 10 3 2 10 11 12 12 13 16 14 12 13 14 12 13 14 14 13 13 12 11 12 11 11 9 8 7 8 9 9 8 9 10 10 10 10 10 10 11 10 10 9 8 9 10 10 9 7 8 8 8 8 8 8 7 8 7 7 7 6 6
7 3 4 6 7 10 7 2 2 2 1 1 3 2 5 6 6 5 9 7 1 7 1 2 1 18 3 1 3 5 4 7 11 12 12 11 13 14 12 12 12 13 13 14 13 12 12 12 12 12 13 13 12 10 9 9 11 11 11 11 10 12 11 10 11 9 9 10 10 10 9 9 8 8 9 9 8 8 8 7 7 6 8 7 6 5
6 3 4 1 2 2 2 2 3 3 2 1 1 3 7 14 15 12 6 4 7 2 5 2 5 8 3 2 2 2 3 4 3 8 12 8 7 8 10 12 13 11 9 8 9 8 9 9 9 10 12 12 12 12 12 10 10 10 11 11 11 12 12 10 10 10 10 10 10 10 9 9 8 9 9 9 8 9 7 7 7 6 7 7 6 7
5 4 6 2 2 1 1 2 2 3 1 5 8 11 10 3 3 3 2 1 3 10 8 8 16 12 2 3 2 3 3 1 4 6 6 8 6 9 11 10 10 10 10 11 12 12 11 11 14 15 14 13 12 11 11 12 12 12 12 11 12 12 11 11 10 11 11 11 12 10 10 10 9 10 9 9 8 8 8 7 7 6 7 7 7 6
9 7 11 9 13 12 10 9 10 9 14 5 1 3 8 15 14 5 7 7 9 12 12 10 17 4 3 2 2 2 2 2 1 3 4 6 8 10 9 10 11 11 12 13 13 12 16 17 13 11 12 11 12 13 13 12 12 11 11 12 11 13 11 11 10 12 12 11 13 12 11 11 10 10 10 9 8 9 8 8 7 7 6 7 8 6
4 3 11 14 16 17 18 5 2 9 5 8 11 14 15 14 15 13 8 7 17 4 7 19 18 8 5 2 4 6 2 5 3 3 8 8 8 7 8 10 12 14 15 17 17 14 10 9 15 16 13 13 12 12 12 13 13 12 12 12 11 12 12 12 12 12 12 12 12 12 11 11 11 10 10 9 9 8 7 8 7 7 8 6 7 8
4 4 14 18 19 19 16 3 7 17 15 15 13 14 15 15 15 16 15 20 7 3 17 14 5 13 17 6 8 7 6 4 5 6 6 6 7 12 12 10 9 8 8 9 10 13 17 19 16 15 16 14 14 13 12 12 13 14 14 15 13 12 12 11 12 12 12 12 11 11 12 10 10 10 9 8 8 8 8 7 7 7 6 6 7 7
5 6 7 8 13 17 15 5 9 9 12 13 17 17 17 17 16 20 23 21 10 15 22 8 13 18 17 9 12 11 11 11 13 15 12 7 5 4 7 10 12 13 11 12 14 14 14 13 15 16 15 15 13 15 15 13 12 11 10 10 12 12 13 12 13 13 13 12 12 12 11 10 9 8 9 9 9 8 8 8 7 6 6 6 6 6
3 8 7 9 16 15 15 8 5 11 7 5 11 16 18 20 23 24 23 21 19 17 20 8 9 15 14 11 10 10 12 13 7 2 3 6 8 9 9 10 12 12 14 16 16 16 16 17 14 13 14 13 16 16 14 13 14 14 15 14 13 14 12 13 13 14 13 13 12 11 11 11 10 10 10 10 10 10 9 8 8 7 7 7 6 6
3 2 8 3 6 14 16 6 4 8 5 10 8 10 15 18 20 22 21 21 18 19 22 11 8 19 6 5 8 5 1 6 5 7 9 7 7 10 11 11 10 10 12 13 15 16 15 13 11 11 13 15 15 16 16 16 14 12 12 12 14 14 14 13 14 14 13 13 12 11 11 11 11 11 11 11 10 8 9 9 8 7 7 6 6 7
7 4 2 4 6 12 11 9 9 6 5 8 12 13 17 15 11 11 16 15 12 20 21 11 12 20 4 3 5 3 5 7 9 9 8 7 8 9 10 10 9 10 12 13 14 13 11 12 14 15 17 17 17 17 15 14 12 12 15 15 14 14 13 13 13 14 14 13 12 12 13 12 12 12 12 10 10 10 9 8 8 8 8 7 7 6
7 5 5 5 10 14 12 9 13 8 6 8 16 29 23 7 12 14 14 14 20 20 14 15 21 17 4 3 5 2 5 6 5 6 4 3 5 7 9 10 10 10 12 13 12 13 14 15 17 18 18 15 15 15 16 15 13 15 16 14 13 10 13 14 15 14 13 13 13 13 12 12 13 12 12 11 10 9 8 9 9 8 8 9 7 6
4 7 8 6 7 10 2 6 5 5 11 16 8 1 12 17 19 16 18 21 18 14 16 16 11 2 8 8 10 8 8 9 10 9 8 12 11 9 8 9 12 14 13 10 10 12 13 11 11 13 15 16 15 14 11 12 15 13 9 9 9 12 12 13 13 13 13 12 13 13 13 13 13 13 12 10 10 9 10 10 11 9 7 6 6 7
11 9 9 5 5 6 4 8 6 13 18 2 4 5 3 17 18 21 23 17 15 14 14 15 12 5 6 9 9 10 11 5 2 6 5 5 10 11 13 12 10 9 9 8 8 8 9 11 12 10 9 10 11 11 11 11 11 10 10 11 12 12 12 12 12 12 12 13 13 12 12 13 12 13 11 11 11 10 11 11 9 9 8 9 10 10
10 12 5 3 3 4 2 7 6 11 2 4 2 1 1 2 10 12 16 19 15 16 18 20 20 9 5 5 1 1 5 3 1 0 3 6 9 11 11 10 10 8 9 10 11 10 10 10 12 12 13 8 9 10 12 13 11 12 13 11 13 12 12 12 12 13 12 13 12 13 14 14 13 13 11 11 11 11 12 11 11 11 9 7 6 4
12 7 6 6 5 8 5 11 12 6 9 1 2 2 7 8 7 11 11 14 14 15 15 16 15 6 5 4 4 2 2 2 0 4 6 8 5 2 5 6 9 9 5 4 6 9 9 8 8 8 6 8 11 12 13 12 12 13 11 12 13 13 12 12 13 15 15 14 13 14 14 14 14 13 12 12 12 12 12 12 10 8 7 8 8 8
8 14 9 10 6 9 8 6 2 3 14 9 3 3 1 1 3 10 8 6 1 6 11 12 11 9 8 4 3 3 3 1 6 8 4 1 2 4 5 3 2 2 4 4 4 4 5 5 5 5 9 10 11 13 11 11 12 12 12 12 11 12 12 13 16 15 14 13 13 13 13 13 13 13 13 12 14 15 13 10 8 9 9 11 11 10
2 1 5 13 5 7 7 9 8 10 7 3 6 4 3 1 7 5 3 8 2 3 5 10 10 10 10 8 5 5 5 6 10 5 2 2 1 3 6 3 3 3 4 6 8 7 6 7 8 7 7 9 11 10 10 11 12 12 12 11 12 12 13 15 16 14 13 13 12 11 12 12 12 12 13 14 14 13 13 12 12 9 8 8 7 8
6 5 5 8 8 7 10 9 11 3 3 4 5 2 3 1 5 8 2 6 1 1 0 2 4 7 6 8 9 8 9 9 7 5 2 1 3 2 4 7 5 5 4 3 2 3 4 5 6 5 7 9 9 6 8 8 10 10 11 10 9 11 14 16 14 10 10 9 10 10 11 11 12 12 13 15 12 10 11 7 6 8 9 8 7 7
6 3 9 16 13 11 11 7 2 4 3 3 4 5 1 1 3 7 9 4 2 3 1 5 7 8 10 9 8 7 6 3 3 3 2 5 6 5 4 3 4 4 5 4 4 4 5 3 4 6 5 4 5 6 7 8 9 10 9 9 9 13 16 12 8 9 11 10 10 10 11 10 12 14 13 12 11 10 7 7 9 8 8 9 6 6
1 2 2 3 10 12 10 9 7 1 5 4 1 3 2 4 6 8 3 0 4 4 2 5 7 5 8 11 8 4 4 3 4 3 4 4 5 4 5 5 5 5 4 3 4 4 5 4 4 4 3 4 6 7 7 9 10 8 8 8 12 15 10 7 9 9 8 9 9 9 10 11 10 10 10 7 7 8 8 5 5 6 7 6 7 8
12 10 10 11 4 2 2 5 2 8 3 8 6 3 1 4 5 4 3 1 1 3 4 2 5 7 8 5 4 6 6 3 3 4 4 4 6 7 6 6 7 7 6 4 3 3 5 5 4 4 4 3 5 6 7 9 9 7 8 10 15 10 6 8 7 7 7 7 8 9 10 9 10 9 7 8 9 9 9 6 7 6 6 7 7 8
4 6 4 5 4 7 8 8 6 2 7 9 14 10 6 6 3 6 8 3 0 2 3 4 2 5 5 9 8 5 5 6 2 3 4 3 4 4 4 4 3 4 3 2 2 4 4 5 4 4 2 3 4 5 6 9 9 8 9 14 9 4 5 5 6 6 7 7 8 8 8 8 8 7 7 8 8 8 8 8 7 7 7 7 8 8
7 7 3 8 5 6 4 1 0 2 5 6 2 2 3 4 3 7 5 6 6 4 3 3 5 4 5 8 8 9 4 4 6 5 7 6 5 5 6 5 5 6 5 5 4 4 4 7 6 5 3 2 3 3 5 5 10 8 11 9 5 6 7 6 7 8 8 8 8 8 7 6 7 8 7 8 9 10 9 8 8 9 6 8 8 8
3 2 1 5 1 2 2 1 1 2 5 3 2 0 2 3 2 3 5 4 4 4 7 6 4 6 6 7 10 3 6 6 7 4 3 4 5 4 2 3 3 3 3 4 3 4 4 4 4 5 5 2 3 4 4 5 7 11 10 3 5 5 6 7 8 8 9 8 8 8 7 8 6 7 7 8 8 10 10 12 11 10 9 8 9 9
2 1 1 3 2 6 5 3 3 5 5 4 1 1 1 1 2 3 5 5 6 5 4 2 8 7 8 9 8 9 6 7 7 5 5 5 5 6 6 6 5 7 8 7 6 6 6 6 6 6 6 6 5 5 5 5 6 6 2 5 5 6 6 7 8 8 6 8 7 6 7 10 8 7 6 7 6 6 7 7 8 8 9 10 10 10
2 3 3 2 3 5 1 4 2 2 0 1 2 4 5 3 1 2 1 2 4 4 3 4 6 5 5 6 6 8 8 6 8 6 6 6 7 6 6 6 6 5 4 5 6 5 5 6 7 7 6 8 7 6 6 6 7 5 3 4 5 6 7 7 8 8 7 7 6 7 7 8 9 9 8 8 9 9 8 8 9 11 13 14 14 14
4 7 4 4 4 0 3 2 1 3 1 3 3 4 4 4 5 4 4 5 5 7 5 3 1 7 6 6 6 8 8 7 6 8 7 5 4 4 6 6 7 6 7 6 6 8 9 7 7 8 8 8 6 6 6 7 5 5 5 4 5 7 7 8 6 5 5 6 6 7 6 6 7 7 8 8 7 8 8 10 11 12 10 5 3 7
7 6 2 5 3 4 9 8 8 7 4 7 9 9 7 5 5 5 4 5 5 7 6 6 3 2 3 5 7 7 8 7 5 5 6 6 5 5 4 4 4 4 5 3 5 5 5 6 6 5 6 4 1 4 5 6 5 4 4 4 5 6 8 7 7 6 6 7 7 6 7 7 7 7 7 8 8 8 6 5 8 8 7 7 7 12
7 7 7 7 9 9 4 10 12 3 5 10 12 9 7 5 8 9 8 8 6 5 7 9 7 3 3 1 2 6 5 7 6 5 4 4 5 5 5 5 4 4 4 4 5 4 5 5 4 4 5 5 3 4 5 4 3 3 4 4 4 5 6 7 7 7 7 7 8 10 9 8 7 7 7 7 7 7 8 7 6 13 16 12 10 12
Wind_Direction
125 137 171 193 213 208 205 200 206 216 187 234 259 204 223 216 275 286 252 251 149 48 229 230 237 246 251 235 230 212 198 216 221 218 202 193 185 181 180 178 165 156 158 165 148 144 143 146 150 143 133 126 113 111 113 101 93 95 102 99 94 90 92 112 111 102 111 108 94 84 84 88 83 84 82 73 69 69 68 67 67 66 65 63 64 60
88 193 231 220 217 190 202 215 221 238 244 233 246 247 274 207 269 242 260 198 325 184 292 266 271 262 254 251 238 212 175 215 209 214 211 200 193 186 175 170 159 147 123 139 132 144 134 145 148 130 130 137 126 118 111 106 103 103 97 98 103 96 91 91 101 106 86 78 107 110 104 103 91 87 84 85 72 75 71 67 65 66 65 65 63 61
197 213 227 224 220 195 222 218 218 215 231 237 225 246 259 269 241 289 355 3 300 96 264 294 288 269 268 262 250 192 200 211 206 203 204 192 191 184 174 165 145 148 156 156 160 156 158 157 140 130 136 134 123 117 111 119 109 103 96 99 103 103 105 98 104 106 103 101 105 108 115 111 99 76 88 92 89 83 79 69 65 63 64 67 65 63
253 270 240 228 194 212 247 251 231 209 218 218 231 188 230 236 282 287 293 305 271 156 246 325 307 282 270 253 251 224 207 219 220 223 227 198 186 179 181 172 161 160 161 168 167 166 166 160 151 136 138 138 117 113 115 113 111 107 106 110 109 107 107 106 104 102 103 106 105 100 108 96 98 109 95 88 83 79 77 69 66 60 66 67 68 61
206 209 216 192 200 189 220 234 224 223 246 256 184 189 209 236 224 195 261 315 331 320 16 323 303 285 257 258 260 274 307 163 209 188 207 201 188 176 157 157 167 167 166 163 164 168 166 162 163 156 152 139 124 122 128 124 124 119 120 120 117 116 114 114 119 116 118 114 106 105 99 98 95 75 82 88 71 70 78 80 62 61 63 66 68 63
246 244 94 154 197 211 209 234 217 175 228 277 231 197 215 207 236 249 320 45 21 329 305 125 337 280 277 251 261 260 0 219 226 192 205 187 173 162 173 173 170 166 169 165 170 172 170 164 157 153 149 141 134 129 140 127 124 122 122 121 117 115 119 123 128 128 127 128 130 132 128 120 111 99 88 89 104 92 79 81 89 68 61 67 68 64
222 183 217 180 181 215 207 214 231 169 208 201 268 197 212 216 226 225 290 47 294 258 295 98 201 283 277 269 253 236 205 227 230 216 210 191 182 182 177 173 173 169 167 165 164 168 168 168 156 156 155 153 139 145 136 121 120 120 123 125 127 127 127 130 133 132 125 121 118 116 113 116 122 116 91 101 95 99 96 91 79 76 65 62 73 68
141 183 193 204 187 193 200 217 237 164 149 232 245 150 185 207 223 225 168 174 234 227 309 27 116 272 294 263 216 212 212 228 231 233 221 210 197 192 182 175 173 172 168 167 173 174 173 167 163 159 155 150 146 140 124 121 123 127 129 128 130 130 134 136 133 123 121 126 126 121 114 111 113 112 124 120 108 98 100 91 85 83 74 66 66 74
161 179 170 184 193 184 200 205 198 159 153 215 248 147 110 166 174 123 133 166 213 13 293 260 25 301 245 275 353 128 226 257 246 230 221 211 202 196 187 181 176 171 169 167 168 174 172 167 161 148 145 144 134 134 131 133 132 128 125 123 124 130 132 137 132 123 112 117 130 128 125 112 109 114 117 118 111 106 103 95 88 83 78 71 63 61
296 172 196 171 173 208 209 263 133 162 176 256 140 81 80 70 64 84 85 66 334 337 245 188 185 219 275 193 147 307 232 251 242 235 221 206 199 191 186 176 167 161 160 163 161 162 164 159 145 139 131 132 140 142 131 130 130 131 129 125 123 126 131 137 130 125 122 126 134 129 130 124 126 126 120 118 116 110 107 98 94 87 80 75 70 62
218 304 177 109 197 181 132 97 104 248 187 131 73 65 24 35 32 4 69 90 25 254 235 195 200 171 278 192 181 157 217 213 242 259 223 190 195 193 189 175 167 163 161 160 157 159 154 147 138 142 141 142 140 141 135 135 138 139 132 131 124 132 129 132 131 130 131 134 139 134 136 133 135 136 132 126 119 119 113 107 100 97 95 86 80 76
9 349 123 266 91 96 104 80 356 73 126 126 101 115 56 343 13 34 344 49 177 262 171 196 192 184 226 289 271 232 252 218 202 224 210 190 193 190 185 180 170 163 163 159 154 155 147 142 144 144 144 148 150 144 143 145 142 141 140 134 127 131 134 133 133 130 133 137 137 134 137 137 139 140 138 133 132 134 123 119 117 115 103 90 85 80
292 208 253 36 256 133 105 92 337 18 8 89 101 88 145 243 38 322 39 268 206 241 277 222 174 306 240 239 248 252 258 267 231 219 203 193 191 185 182 177 172 164 160 163 160 155 160 160 160 159 156 151 159 160 157 155 149 146 145 144 137 144 143 139 139 135 135 136 141 143 142 141 139 138 136 133 130 136 128 131 127 122 113 112 97 94
271 271 193 224 349 235 146 169 157 183 225 131 145 153 129 205 197 261 246 247 295 297 263 180 164 238 313 279 237 250 249 242 251 260 199 181 182 183 179 171 167 169 168 164 160 163 166 167 169 164 161 160 161 163 162 160 155 154 151 151 142 149 143 138 134 134 133 136 140 145 146 143 142 139 137 135 131 134 130 132 127 127 128 122 123 123
241 315 240 145 243 180 191 197 188 162 158 200 114 152 187 154 155 224 185 212 223 224 282 278 123 235 138 243 254 257 300 294 280 252 204 189 179 167 155 151 155 165 171 164 166 171 171 172 170 169 166 166 167 167 165 163 160 154 154 153 147 142 145 139 137 133 134 137 141 144 145 140 141 137 132 129 132 135 131 127 122 122 123 122 131 124
210 222 262 191 230 163 193 200 109 99 104 228 168 57 94 217 143 235 186 189 262 324 320 202 207 191 189 245 278 261 305 338 349 107 128 138 131 137 145 162 172 173 169 167 168 171 174 171 168 166 170 171 171 170 168 166 162 158 158 153 150 147 147 143 138 140 140 141 141 141 139 140 132 126 121 120 121 121 124 128 127 127 127 127 122 114
59 250 302 132 30 174 200 143 187 149 198 208 113 199 209 153 179 280 7 3 88 32 253 146 281 294 299 287 240 274 299 277 8 150 151 152 152 153 167 172 174 174 171 173 175 175 172 170 175 175 172 172 171 173 175 171 167 161 157 153 149 147 145 145 145 143 142 140 137 138 136 135 132 135 139 137 133 127 122 122 124 124 130 125 116 116
161 234 320 112 209 301 57 217 109 336 137 98 186 223 75 68 108 143 230 339 59 223 273 159 230 272 107 274 49 110 213 247 247 203 184 158 161 174 180 179 178 180 179 174 172 174 177 176 174 173 176 178 177 173 169 168 164 160 160 158 151 153 151 152 147 145 146 143 137 138 136 134 137 137 135 133 130 129 125 121 119 123 122 125 124 116
158 266 216 270 115 306 350 109 8 355 31 156 193 210 138 242 249 267 91 255 205 247 283 264 225 244 188 234 99 232 215 230 227 208 176 185 188 191 183 184 180 168 163 173 179 179 179 179 177 176 176 175 173 172 167 158 155 155 157 158 157 155 155 150 145 139 135 137 138 141 141 140 137 136 130 126 125 127 128 131 134 131 129 117 117 119
149 200 308 346 116 255 58 137 194 192 319 36 73 173 167 100 164 145 198 178 124 265 30 285 81 261 178 215 182 203 207 215 204 187 209 200 193 187 184 179 178 181 182 181 183 184 181 179 176 174 172 172 172 169 167 158 154 157 157 152 149 138 138 139 141 143 142 140 136 134 130 133 139 139 135 135 134 133 135 139 136 133 127 131 125 126
246 141 258 217 299 109 189 181 195 172 177 183 120 201 197 39 255 118 300 164 173 196 202 283 290 256 244 198 183 203 203 209 189 198 206 202 197 193 186 180 182 184 184 185 185 181 178 176 171 169 168 165 159 160 158 161 162 159 154 154 155 153 154 151 150 146 146 140 141 142 146 147 146 138 132 128 132 133 139 139 134 132 134 126 130 133
206 167 206 138 228 218 256 241 209 192 191 183 176 191 184 149 149 180 254 91 163 160 242 171 257 268 258 150 206 208 213 203 199 196 200 200 193 193 188 185 183 184 190 186 182 176 174 171 166 161 156 156 160 166 165 161 155 157 162 160 155 153 157 154 156 153 149 147 148 151 150 149 143 137 134 134 139 141 144 142 138 139 136 134 143 134
173 147 103 192 207 202 216 266 317 176 70 157 156 258 195 197 163 169 232 224 178 237 143 198 340 274 200 171 262 237 233 216 200 193 204 197 193 193 189 184 188 188 183 182 178 178 178 174 171 168 167 169 171 169 165 164 166 166 163 159 162 160 164 162 157 151 149 149 153 155 153 146 145 141 141 142 148 149 148 143 140 145 142 142 140 133
90 133 201 257 51 349 339 330 17 37 84 326 262 158 159 204 195 207 207 165 194 211 207 257 249 266 357 -0 306 305 274 272 216 194 204 190 192 187 179 181 185 181 181 175 174 173 173 167 160 161 172 172 172 174 175 172 168 166 167 166 161 164 162 159 155 152 152 153 156 156 152 151 146 145 148 151 156 153 151 146 148 148 142 143 139 137
160 233 157 114 331 346 356 338 347 348 68 206 206 207 205 217 222 242 74 180 243 220 179 179 243 255 263 328 318 2 359 0 204 204 190 184 181 184 184 183 182 177 169 176 177 174 167 168 177 184 180 178 175 172 173 175 176 172 171 168 167 165 164 156 157 156 159 159 157 161 157 155 154 153 157 157 159 157 151 153 151 152 149 144 143 143
183 154 157 194 215 228 230 205 196 198 204 205 268 152 186 199 199 179 237 213 230 237 160 218 247 243 288 348 336 331 354 343 340 190 199 196 183 180 183 175 175 175 182 180 175 170 184 188 183 179 183 179 179 178 177 178 178 175 172 175 169 164 163 163 161 164 161 164 162 163 163 160 158 161 163 163 161 160 160 157 156 155 155 152 147 142
168 196 183 193 204 220 233 236 104 116 79 188 210 185 206 204 202 201 220 210 225 221 180 228 235 261 280 274 265 259 240 224 239 183 195 200 197 186 174 176 181 184 179 182 185 186 175 176 189 191 184 183 180 180 181 180 179 177 174 174 174 169 166 165 166 167 167 169 167 164 166 166 167 165 165 167 164 159 161 163 159 157 159 161 152 150
103 180 213 208 210 224 238 181 185 158 183 203 191 206 204 198 198 195 204 225 185 117 247 236 146 245 243 211 239 232 232 247 247 232 221 222 196 185 184 179 175 175 181 176 178 183 189 193 190 186 187 182 184 183 183 186 183 180 178 176 174 171 169 169 169 169 171 170 171 171 169 170 166 165 168 165 159 163 164 160 160 159 159 156 157 157
149 200 223 210 244 241 239 196 171 186 191 191 199 201 199 202 197 201 218 225 171 208 234 213 177 228 242 189 221 207 200 207 207 210 205 192 158 146 150 164 179 185 176 183 192 191 195 196 195 192 187 188 180 185 187 182 183 182 180 178 177 174 178 170 167 172 174 175 176 175 169 165 166 164 165 161 160 163 166 166 162 160 163 164 158 151
130 236 210 188 224 238 243 222 177 186 210 215 211 209 204 197 204 205 216 217 208 227 237 218 210 233 237 216 213 213 206 206 206 91 98 141 171 171 171 184 184 182 183 187 191 196 198 200 196 192 188 185 189 190 186 186 187 186 182 182 181 179 176 167 176 174 177 179 179 172 170 168 166 169 166 165 169 171 167 164 163 163 164 168 160 145
126 271 97 131 219 244 245 229 177 206 182 218 224 222 221 214 209 206 213 222 218 238 243 229 254 262 236 179 209 240 78 65 94 169 186 179 163 171 179 184 185 186 194 199 196 198 200 195 190 187 192 196 194 192 191 193 190 184 184 185 184 181 177 173 175 180 178 182 179 173 170 169 172 168 172 173 170 168 167 167 164 166 168 165 160 155
165 240 61 134 202 249 237 199 216 210 214 232 240 232 225 206 203 214 220 219 197 224 235 237 251 253 128 143 57 76 146 163 183 190 185 183 175 165 180 186 186 194 197 201 205 200 192 191 189 192 197 197 198 195 192 189 185 183 194 190 186 182 172 176 179 180 184 183 177 177 176 175 170 172 175 172 177 173 172 166 166 170 172 166 162 162
183 150 172 159 220 241 254 154 210 206 228 264 248 235 223 179 208 217 227 218 211 215 219 221 229 243 197 179 152 201 180 194 193 187 171 136 156 170 178 185 193 203 206 204 201 197 196 195 195 197 200 199 198 196 197 187 180 194 194 189 187 168 176 182 184 185 183 182 181 180 178 173 173 176 176 180 175 171 166 171 174 172 171 181 172 152
148 180 215 170 225 239 229 145 116 168 217 227 248 289 189 199 200 207 218 220 220 201 220 222 238 181 152 181 186 191 184 200 195 204 177 163 173 186 201 197 199 204 206 202 198 199 201 200 203 204 203 200 199 199 189 185 194 194 179 173 166 180 184 185 189 185 184 182 185 181 177 176 178 181 181 175 171 169 174 177 184 182 178 161 158 172
188 189 215 157 207 221 133 122 173 209 226 230 318 275 196 197 200 211 230 226 222 224 243 258 249 203 194 186 195 189 197 198 195 161 186 198 167 177 190 203 208 205 199 187 194 204 202 202 204 204 200 200 192 183 176 189 187 172 171 175 179 183 184 190 187 188 188 189 187 179 179 180 181 183 178 174 173 176 182 185 181 177 177 176 178 177
186 191 167 213 157 46 142 173 217 224 258 323 329 133 308 125 196 201 239 239 227 217 218 232 238 218 197 199 189 180 170 216 141 143 198 198 189 184 188 202 201 181 183 189 192 201 197 199 200 197 202 181 165 177 182 187 177 173 183 177 182 182 187 185 189 193 190 193 186 183 184 181 184 184 178 175 178 181 186 188 185 183 179 177 180 177
177 180 168 227 172 205 180 205 233 1 312 193 77 201 167 168 157 175 215 244 215 220 215 226 234 191 193 199 167 145 183 152 214 215 206 194 204 184 177 166 161 179 176 178 185 205 203 199 199 198 166 165 175 175 187 180 175 180 175 179 186 183 184 184 192 196 196 193 187 188 187 185 184 184 180 178 179 187 191 187 190 187 169 175 184 180
180 183 191 200 216 199 196 226 328 250 249 253 209 246 250 196 192 186 177 279 300 224 209 212 217 176 191 159 112 98 58 30 277 273 295 318 145 108 44 63 90 150 179 183 176 178 181 185 176 169 168 173 181 186 179 172 175 175 178 184 183 182 187 191 201 200 193 192 192 190 186 187 187 185 181 179 188 193 195 192 188 183 178 182 181 190
349 252 184 198 193 156 208 218 209 223 235 149 219 236 255 227 143 106 109 258 265 215 219 198 198 179 181 155 165 117 127 200 240 247 270 277 237 128 111 79 108 147 162 168 163 163 173 178 172 170 164 167 184 189 173 171 169 174 184 183 183 185 189 200 204 196 193 195 189 186 188 190 189 186 183 188 197 194 190 190 190 181 178 192 188 193
158 178 150 216 214 196 201 210 229 215 229 241 225 247 232 155 157 100 98 275 253 76 84 118 137 154 168 166 156 159 166 213 232 242 248 236 154 126 140 144 130 116 95 88 72 138 148 132 109 132 161 183 193 158 157 157 166 178 182 183 176 186 201 207 203 190 191 189 185 188 190 190 189 189 188 197 197 193 198 180 160 174 183 190 182 175
173 212 199 206 209 211 212 239 5 295 267 241 188 228 258 231 119 150 200 215 193 177 206 146 162 171 163 159 164 170 219 188 182 168 137 144 101 79 58 69 89 99 115 108 107 98 106 115 136 158 174 162 138 143 151 152 162 180 182 173 179 201 209 202 179 184 192 187 186 188 189 188 190 193 198 197 193 185 177 177 184 173 178 181 173 164
270 108 342 210 221 212 208 217 227 278 230 165 284 178 222 111 202 195 223 174 138 175 195 147 149 162 156 165 179 171 167 153 102 99 109 101 116 113 111 112 101 73 52 80 90 101 100 90 90 92 95 127 144 146 151 155 167 178 167 175 200 212 201 173 187 187 182 184 186 186 185 190 195 197 193 178 159 167 186 185 170 180 177 168 171 179
179 162 192 196 178 46 133 199 169 228 207 130 128 64 293 147 240 171 152 346 198 183 141 145 147 171 151 155 150 139 137 128 122 123 127 129 127 140 142 142 143 147 142 122 97 80 114 112 120 138 150 142 145 149 157 155 167 168 176 191 214 203 174 183 174 174 176 178 180 186 189 190 186 184 172 175 178 176 182 169 167 167 163 168 176 185
182 141 198 213 177 173 175 197 205 207 140 184 151 173 191 202 186 155 136 123 264 160 166 143 202 172 164 141 144 137 141 126 88 119 109 117 127 126 129 119 107 110 105 70 105 130 114 117 123 125 127 140 144 153 155 162 166 175 182 213 207 144 152 152 158 156 169 181 188 183 186 184 182 179 172 172 167 172 168 171 170 167 177 178 180 186
208 183 182 176 187 164 194 200 294 296 165 165 92 331 174 168 162 170 134 150 155 231 176 159 176 147 147 138 137 139 138 187 162 173 148 176 167 161 162 172 161 160 161 155 153 147 136 151 155 143 136 139 148 153 164 167 167 174 201 217 132 167 160 158 154 166 182 190 187 185 181 170 177 178 175 172 168 171 175 171 166 177 188 179 191 193
349 150 142 91 180 107 47 157 16 46 152 166 41 261 147 130 118 133 138 120 225 176 176 174 166 145 141 143 128 165 160 166 149 175 168 154 165 183 137 126 128 137 138 131 133 143 143 128 131 144 154 174 181 169 171 176 161 177 214 137 153 153 156 153 163 178 193 189 185 182 164 169 177 177 179 176 183 187 183 179 181 187 184 187 198 198
258 189 80 111 239 131 230 139 167 185 178 184 115 25 4 118 173 173 176 178 168 171 155 153 151 158 158 163 160 158 155 158 156 171 161 158 165 174 175 167 175 172 169 167 177 147 135 145 145 161 166 184 212 188 188 180 200 197 128 153 155 153 155 166 175 186 184 188 181 167 170 177 181 179 179 184 185 188 181 181 185 184 186 193 195 200
279 187 104 198 137 170 255 167 237 327 250 179 178 162 180 192 74 57 128 146 127 127 124 157 133 127 140 149 157 144 159 169 151 165 167 178 175 169 174 173 170 176 187 163 162 152 140 158 168 175 180 199 206 194 190 197 206 188 147 151 155 151 154 169 182 185 191 184 172 177 181 187 178 174 183 190 185 187 192 197 191 191 197 193 196 195
159 123 197 165 141 84 3 318 314 64 15 271 269 259 236 182 150 107 101 108 123 119 112 98 109 161 162 165 143 136 141 191 174 169 167 167 165 178 184 184 188 178 160 154 170 169 177 180 181 191 186 211 193 184 192 210 204 175 173 164 154 155 161 175 181 173 168 166 163 183 183 184 179 190 187 193 204 217 206 195 196 207 221 233 207 212
98 173 192 115 136 194 194 183 160 131 230 234 243 227 220 192 148 137 120 122 136 136 141 119 73 57 115 143 150 144 159 177 182 160 169 174 184 191 181 191 186 167 186 181 158 178 177 181 188 188 210 233 147 183 205 216 212 196 184 159 160 158 161 165 161 168 180 175 179 177 175 187 190 190 191 193 202 208 245 253 222 223 217 224 204 214
160 188 148 172 183 213 173 166 189 162 172 195 196 214 195 166 157 159 174 171 176 165 151 131 121 94 109 128 166 147 155 168 180 163 143 171 206 200 188 170 168 190 192 165 146 185 194 196 180 194 228 227 172 182 201 215 204 193 195 166 168 165 161 155 164 179 184 178 195 190 189 186 189 192 193 197 193 199 210 238 249 230 227 221 215 220